Simultaneous Nadir Overpasses (SNOs) Predictions

Prediction of SNOs between GOES-17 and METOP-B Satellite Orbit:

Table of predicted SNOs for the next 14.0 days since TLE Epoch: 1/23/2022
Index Date Time (GOES-17) GOES-17 Lat,Lon METOP-B Lat,Lon Distance(km) Time Diff (sec)
1 01/24/2022 18:36:24 0.00,-137.23 -0.07,-136.79 49.68 80
2 01/26/2022 06:58:04 -0.00,-137.22 -0.92,-141.40 475.58 80
3 01/27/2022 06:34:44 0.00,-137.21 0.17,-136.40 92.93 80
4 01/28/2022 18:56:14 -0.00,-137.21 0.84,-140.95 426.83 80
5 01/29/2022 18:32:55 -0.01,-137.20 -0.31,-135.97 141.17 80
6 01/31/2022 06:54:34 0.01,-137.17 -0.74,-140.56 385.72 80
7 02/01/2022 06:33:53 0.00,-137.16 0.35,-135.56 182.53 80
8 02/02/2022 18:50:04 0.01,-137.15 0.66,-140.11 337.60 80
9 02/03/2022 18:32:03 0.02,-137.13 -0.44,-135.11 230.42 80
10 02/05/2022 06:48:23 -0.02,-137.10 -0.60,-139.71 296.42 80
